KINEIS-5D

Last updated on Fri Sep 11 2026 00:02:53 GMT+0000 (Coordinated Universal Time)

1 62082U 24219B 26253.50540794 .00000628 00000+0 10647-3 0 9994 2 62082 97.9255 50.2052 0005059 15.9273 344.2093 14.72576624 96315
UTC large
Height (km)
Speed (km/s)
/
Latitude / Longitude
Inclination (degrees)
Orbital Period (minutes)
Azimuth
Elevation
Range (km)
Doppler Factor

Next 0 passes for location: London (51.5072 / 0.1276)

No passes found over London.
KINEIS-5D